Weather History for KOLM - November, 2011

Change the Weather History Date:

Wednesday, November 23, 2011

  Actual Average Record
Temperature  
Mean Temperature 44 °F 42 °F  
Max Temperature 54 °F 48 °F 61 °F (1957)
Min Temperature 34 °F 35 °F 0 °F (1985)
Degree Days  
Heating Degree Days 21 23  
Month to date heating degree days 557 480  
Since 1 July heating degree days 1325 1274  
Cooling Degree Days 0 0  
Month to date cooling degree days 0 0  
Year to date cooling degree days 59 106  
Moisture  
Dew Point 42 °F    
Average Humidity 93    
Maximum Humidity 100    
Minimum Humidity 86    
Precipitation  
Precipitation 0.85 in 0.30 in 3.39 in (1986)
Month to date precipitation 5.28 6.53  
Year to date precipitation 42.50 40.44  
Sea Level Pressure  
Sea Level Pressure 29.65 in    
Wind  
Wind Speed 10 mph (SSW)    
Max Wind Speed 28 mph    
Max Gust Speed 37 mph    
Visibility 7 miles    
Events Fog , Rain    
T = Trace of Precipitation, MM = Missing Value Source: NWS Daily Summary

Daily Weather History Graph

Daily Weather History Graph

Search for Another Location

Airport or City:

Trip Planner

Search our weather history database for the weather conditions in past years. The results will help you decide how hot, cold, wet, or windy it might be!

Date:

Astronomy

Nov. 23, 2011 Rise Set
Actual Time 7:25 AM PST 4:29 PM PST
Civil Twilight 6:52 AM PST 5:03 PM PST
Nautical Twilight 6:14 AM PST 5:41 PM PST
Astronomical Twilight 5:38 AM PST 6:17 PM PST
Moon 5:34 AM PST (11/23) 3:16 PM PST (11/23)
Length of Visible Light 10h 11m
Length of Day
9h 03m
Waning Crescent, 3% of the Moon is Illuminated
Nov 23
Waning Crescent
Nov 24
New
Dec 2
First Quarter
Dec 10
Full
Dec 17
Last Quarter

Hourly Weather History & Observations

Time (PST) Temp. Windchill Dew Point Humidity Pressure Visibility Wind Dir Wind Speed Gust Speed Precip Events Conditions
12:54 AM 54.0 °F - 52.0 °F 93% 29.40 in 6.0 mi South 21.9 mph 33.4 mph 0.10 in Rain Rain
1:02 AM 53.6 °F - 51.8 °F 94% 29.39 in 5.0 mi South 19.6 mph 29.9 mph 0.02 in Rain Rain
1:54 AM 54.0 °F - 51.1 °F 90% 29.39 in 6.0 mi South 24.2 mph 32.2 mph 0.16 in Rain Rain
2:06 AM 53.6 °F - 51.8 °F 94% 29.39 in 6.0 mi South 25.3 mph 36.8 mph 0.02 in Rain Rain
2:54 AM 53.6 °F - 51.8 °F 94% 29.38 in 6.0 mi South 20.7 mph 29.9 mph N/A Rain Rain
3:34 AM 53.6 °F - 50.0 °F 88% 29.37 in 5.0 mi South 19.6 mph 35.7 mph 0.12 in Rain Rain
3:42 AM 53.6 °F - 50.0 °F 88% 29.37 in 4.0 mi South 23.0 mph 35.7 mph 0.14 in Rain Rain
3:54 AM 53.1 °F - 50.0 °F 89% 29.37 in 5.0 mi South 19.6 mph 32.2 mph 0.18 in Rain Rain
4:35 AM 53.6 °F - 50.0 °F 88% 29.39 in 7.0 mi SSW 19.6 mph 32.2 mph 0.11 in Rain Light Rain
4:54 AM 52.0 °F - 50.0 °F 93% 29.42 in 4.0 mi West 16.1 mph 32.2 mph 0.17 in Rain Rain
4:58 AM 51.8 °F - 48.2 °F 88% 29.41 in 4.0 mi West 12.7 mph 23.0 mph 0.01 in Rain Light Rain
5:15 AM 50.0 °F - 46.4 °F 87% 29.42 in 10.0 mi SW 8.1 mph 18.4 mph N/A Rain Light Rain
5:54 AM 46.9 °F - 43.0 °F 86% 29.47 in 10.0 mi WSW 8.1 mph - 0.02 in   Overcast
6:54 AM 46.0 °F 41.9 °F 42.1 °F 86% 29.52 in 10.0 mi SW 8.1 mph - 0.00 in Rain Light Rain
7:54 AM 45.0 °F 41.2 °F 43.0 °F 93% 29.56 in 10.0 mi SSW 6.9 mph - 0.00 in   Overcast
8:54 AM 46.0 °F 41.9 °F 43.0 °F 89% 29.59 in 10.0 mi SSW 8.1 mph - N/A   Overcast
9:54 AM 46.4 °F 41.9 °F 42.8 °F 87% 29.61 in 9.0 mi SSW 9.2 mph - N/A   Overcast
10:54 AM 46.0 °F 41.4 °F 43.0 °F 89% 29.64 in 10.0 mi SSW 9.2 mph - 0.00 in   Overcast
11:54 AM 46.0 °F 41.9 °F 43.0 °F 89% 29.65 in 10.0 mi SSW 8.1 mph - N/A   Overcast
12:54 PM 46.0 °F 41.9 °F 43.0 °F 89% 29.67 in 10.0 mi SSW 8.1 mph - N/A   Overcast
1:54 PM 45.0 °F 41.2 °F 42.1 °F 90% 29.68 in 10.0 mi SSW 6.9 mph - N/A   Overcast
2:54 PM 45.0 °F 40.1 °F 41.0 °F 86% 29.71 in 10.0 mi SSW 9.2 mph - N/A   Overcast
3:54 PM 44.1 °F 39.0 °F 41.0 °F 89% 29.73 in 10.0 mi SSW 9.2 mph - N/A   Overcast
4:54 PM 43.0 °F 38.8 °F 41.0 °F 93% 29.76 in 10.0 mi SSW 6.9 mph - N/A   Mostly Cloudy
5:54 PM 39.9 °F 35.8 °F 37.9 °F 93% 29.78 in 10.0 mi SSW 5.8 mph - N/A   Partly Cloudy
6:54 PM 37.4 °F 34.9 °F 35.6 °F 93% 29.79 in 10.0 mi SSW 3.5 mph - N/A   Clear
7:54 PM 37.9 °F 34.4 °F 37.0 °F 97% 29.82 in 10.0 mi SSW 4.6 mph - N/A   Clear
8:54 PM 37.0 °F 31.6 °F 36.0 °F 96% 29.84 in 10.0 mi SSW 6.9 mph - N/A   Clear
9:32 PM 37.4 °F 33.8 °F 37.4 °F 100% 29.85 in 10.0 mi West 4.6 mph - N/A   Partly Cloudy
9:54 PM 37.0 °F - 37.0 °F 100% 29.85 in 5.0 mi Calm Calm - N/A   Scattered Clouds
10:02 PM 35.6 °F 32.8 °F 35.6 °F 100% 29.85 in 2.5 mi SSW 3.5 mph - N/A   Scattered Clouds
10:05 PM 35.6 °F 32.8 °F 35.6 °F 100% 29.84 in 1.2 mi SSW 3.5 mph - N/A   Scattered Clouds
10:08 PM 33.8 °F 30.8 °F 33.8 °F 100% 29.85 in 0.8 mi SSW 3.5 mph - N/A   Mist
10:23 PM 37.4 °F 32.8 °F 35.6 °F 93% 29.85 in 0.2 mi West 5.8 mph - N/A Fog Fog
10:41 PM 37.4 °F 32.1 °F 37.4 °F 100% 29.85 in 1.0 mi WSW 6.9 mph - N/A   Overcast
10:43 PM 37.4 °F 31.4 °F 37.4 °F 100% 29.85 in 2.0 mi WSW 8.1 mph - N/A   Overcast
10:50 PM 37.4 °F 31.4 °F 37.4 °F 100% 29.85 in 9.0 mi SW 8.1 mph - N/A   Overcast
10:54 PM 39.0 °F 32.3 °F 37.9 °F 96% 29.85 in 9.0 mi SSW 10.4 mph - N/A   Overcast
11:25 PM 39.2 °F 33.6 °F 37.4 °F 93% 29.84 in 5.0 mi South 8.1 mph - 0.02 in Rain Light Rain
11:39 PM 39.2 °F 33.6 °F 37.4 °F 93% 29.85 in 8.0 mi South 8.1 mph - 0.03 in Rain Light Rain
11:52 PM 39.2 °F 37.0 °F 39.2 °F 100% 29.85 in 9.0 mi SSW 3.5 mph - 0.03 in Rain Light Rain
11:54 PM 39.0 °F 35.7 °F 39.0 °F 100% 29.86 in 9.0 mi South 4.6 mph - 0.03 in Rain Light Rain